Time,TemperatureF,DewpointF,PressureIn,WindDirection,WindDirectionDegrees,WindSpeedMPH,WindSpeedGustMPH,Humidity,HourlyPrecipIn,Conditions,Clouds,dailyrainin,SoftwareType,DateUTC
2013-05-03 00:01:00,73.4,70.0,29.81,ENE,65,4.0,9.0,89,0.00,,,0.03,meteohub,2013-05-03 04:01:00,
2013-05-03 00:02:00,73.4,70.0,29.81,NE,51,1.0,9.0,89,0.00,,,0.03,meteohub,2013-05-03 04:02:00,
2013-05-03 00:08:00,73.6,70.5,29.81,East,94,0.0,8.0,90,0.00,,,0.03,meteohub,2013-05-03 04:08:00,
2013-05-03 00:13:00,73.4,70.0,29.82,NNW,340,0.0,8.0,89,0.00,,,0.03,meteohub,2013-05-03 04:13:00,
2013-05-03 00:18:00,73.2,69.8,29.81,ENE,66,3.0,8.0,89,0.00,,,0.03,meteohub,2013-05-03 04:18:00,
2013-05-03 00:23:00,73.2,69.8,29.81,NNE,17,0.0,13.0,89,0.00,,,0.03,meteohub,2013-05-03 04:23:00,
2013-05-03 00:28:00,73.0,70.0,29.81,ENE,57,4.0,13.0,90,0.00,,,0.03,meteohub,2013-05-03 04:28:00,
2013-05-03 00:33:00,73.0,70.0,29.81,East,101,0.0,13.0,90,0.00,,,0.03,meteohub,2013-05-03 04:33:00,
2013-05-03 00:38:00,73.0,70.0,29.80,SE,126,0.0,7.0,90,0.00,,,0.03,meteohub,2013-05-03 04:38:00,
2013-05-03 00:43:00,73.0,70.0,29.80,East,98,0.0,7.0,90,0.00,,,0.03,meteohub,2013-05-03 04:43:00,
2013-05-03 00:48:00,73.0,70.0,29.80,East,83,1.0,6.0,90,0.00,,,0.03,meteohub,2013-05-03 04:48:00,
2013-05-03 00:54:00,73.2,70.2,29.80,SE,126,0.0,6.0,90,0.00,,,0.03,meteohub,2013-05-03 04:54:00,
2013-05-03 00:59:00,73.0,69.6,29.79,ESE,105,2.0,5.0,89,0.00,,,0.03,meteohub,2013-05-03 04:59:00,
2013-05-03 01:04:00,73.0,69.6,29.79,ESE,119,0.0,9.0,89,0.00,,,0.03,meteohub,2013-05-03 05:04:00,
2013-05-03 01:09:00,72.9,69.8,29.78,SSE,168,0.0,9.0,90,0.00,,,0.03,meteohub,2013-05-03 05:09:00,
2013-05-03 01:14:00,72.9,69.8,29.78,SSE,150,0.0,9.0,90,0.00,,,0.03,meteohub,2013-05-03 05:14:00,
2013-05-03 01:19:00,72.9,69.8,29.78,SSE,159,1.0,6.0,90,0.00,,,0.03,meteohub,2013-05-03 05:19:00,
2013-05-03 01:24:00,72.9,69.8,29.78,South,174,0.0,6.0,90,0.00,,,0.03,meteohub,2013-05-03 05:24:00,
2013-05-03 01:29:00,72.9,69.8,29.77,ESE,110,0.0,4.0,90,0.00,,,0.03,meteohub,2013-05-03 05:29:00,
2013-05-03 01:34:00,72.9,69.8,29.77,ESE,110,0.0,3.0,90,0.00,,,0.03,meteohub,2013-05-03 05:34:00,
2013-05-03 01:40:00,72.7,69.6,29.76,ESE,111,0.0,3.0,90,0.00,,,0.03,meteohub,2013-05-03 05:40:00,
2013-05-03 01:45:00,72.9,70.2,29.75,South,186,0.0,3.0,91,0.00,,,0.03,meteohub,2013-05-03 05:45:00,
2013-05-03 01:50:00,72.9,69.8,29.75,SSW,199,0.0,3.0,90,0.00,,,0.03,meteohub,2013-05-03 05:50:00,
2013-05-03 01:55:00,73.0,70.0,29.74,SSE,163,1.0,5.0,90,0.00,,,0.03,meteohub,2013-05-03 05:55:00,
2013-05-03 02:00:00,73.2,69.8,29.74,South,175,4.0,16.0,89,0.00,,,0.03,meteohub,2013-05-03 06:00:00,
2013-05-03 02:05:00,73.9,70.5,29.73,SSW,194,5.0,16.0,89,0.00,,,0.03,meteohub,2013-05-03 06:05:00,
2013-05-03 02:10:00,74.1,70.7,29.73,SSW,194,10.0,16.0,89,0.00,,,0.03,meteohub,2013-05-03 06:10:00,
2013-05-03 02:15:00,74.3,70.9,29.73,South,183,1.0,14.0,89,0.00,,,0.03,meteohub,2013-05-03 06:15:00,
2013-05-03 02:21:00,74.3,71.2,29.73,SSW,199,0.0,13.0,90,0.00,,,0.03,meteohub,2013-05-03 06:21:00,
2013-05-03 02:26:00,74.1,71.1,29.73,SSE,166,5.0,13.0,90,0.00,,,0.03,meteohub,2013-05-03 06:26:00,
2013-05-03 02:31:00,73.9,70.9,29.73,SSW,205,2.0,12.0,90,0.00,,,0.03,meteohub,2013-05-03 06:31:00,
2013-05-03 02:36:00,73.6,70.7,29.73,West,269,1.0,12.0,91,0.00,,,0.03,meteohub,2013-05-03 06:36:00,
2013-05-03 02:41:00,73.0,70.3,29.73,West,265,0.0,8.0,91,0.00,,,0.03,meteohub,2013-05-03 06:41:00,
2013-05-03 02:46:00,72.9,70.3,29.73,West,269,0.0,7.0,92,0.00,,,0.03,meteohub,2013-05-03 06:46:00,
2013-05-03 02:51:00,72.5,70.3,29.73,West,269,0.0,3.0,93,0.00,,,0.03,meteohub,2013-05-03 06:51:00,
2013-05-03 02:56:00,72.3,70.2,29.73,West,259,0.0,1.0,93,0.00,,,0.03,meteohub,2013-05-03 06:56:00,
2013-05-03 03:02:00,72.0,69.8,29.73,WSW,249,1.0,1.0,93,0.00,,,0.03,meteohub,2013-05-03 07:02:00,
2013-05-03 03:07:00,71.8,69.6,29.72,West,265,0.0,3.0,93,0.00,,,0.03,meteohub,2013-05-03 07:07:00,
2013-05-03 03:13:00,71.4,69.6,29.72,West,275,0.0,4.0,94,0.00,,,0.03,meteohub,2013-05-03 07:13:00,
2013-05-03 03:18:00,71.2,69.4,29.72,West,275,0.0,4.0,94,0.00,,,0.03,meteohub,2013-05-03 07:18:00,
2013-05-03 03:23:00,71.2,69.4,29.72,West,275,0.0,4.0,94,0.00,,,0.03,meteohub,2013-05-03 07:23:00,
2013-05-03 03:29:00,71.2,69.8,29.73,West,275,0.0,1.0,95,0.00,,,0.03,meteohub,2013-05-03 07:29:00,
2013-05-03 03:35:00,71.1,69.6,29.73,West,275,0.0,1.0,95,0.00,,,0.03,meteohub,2013-05-03 07:35:00,
2013-05-03 03:42:00,71.1,69.6,29.73,West,275,0.0,0.0,95,0.00,,,0.03,meteohub,2013-05-03 07:42:00,
2013-05-03 03:48:00,71.1,69.6,29.73,West,275,0.0,0.0,95,0.00,,,0.03,meteohub,2013-05-03 07:48:00,
2013-05-03 03:53:00,71.1,69.6,29.73,West,274,0.0,0.0,95,0.00,,,0.03,meteohub,2013-05-03 07:53:00,
2013-05-03 03:58:00,71.1,69.6,29.74,WSW,258,0.0,1.0,95,0.00,,,0.03,meteohub,2013-05-03 07:58:00,
2013-05-03 04:04:00,71.1,69.8,29.73,West,259,0.0,1.0,96,0.00,,,0.03,meteohub,2013-05-03 08:04:00,
2013-05-03 04:09:00,71.1,69.8,29.73,West,261,0.0,1.0,96,0.00,,,0.03,meteohub,2013-05-03 08:09:00,
2013-05-03 04:17:00,70.9,69.6,29.73,West,259,0.0,1.0,96,0.00,,,0.03,meteohub,2013-05-03 08:17:00,
2013-05-03 04:22:00,70.9,69.6,29.73,West,267,0.0,3.0,96,0.00,,,0.03,meteohub,2013-05-03 08:22:00,
2013-05-03 04:28:00,70.9,69.6,29.73,SSW,207,0.0,3.0,96,0.00,,,0.03,meteohub,2013-05-03 08:28:00,
2013-05-03 04:35:00,70.9,69.6,29.73,South,180,0.0,3.0,96,0.00,,,0.03,meteohub,2013-05-03 08:35:00,
2013-05-03 04:40:00,70.7,69.4,29.74,South,184,0.0,4.0,96,0.00,,,0.03,meteohub,2013-05-03 08:40:00,
2013-05-03 04:46:00,70.7,69.4,29.74,South,190,0.0,4.0,96,0.00,,,0.03,meteohub,2013-05-03 08:46:00,
2013-05-03 04:52:00,70.5,69.3,29.74,SSW,192,0.0,4.0,96,0.00,,,0.03,meteohub,2013-05-03 08:52:00,
2013-05-03 04:57:00,70.5,69.3,29.74,SSW,198,0.0,1.0,96,0.02,,,0.05,meteohub,2013-05-03 08:57:00,
2013-05-03 05:04:00,70.5,69.3,29.74,SSW,194,0.0,1.0,96,0.03,,,0.06,meteohub,2013-05-03 09:04:00,
2013-05-03 05:11:00,70.3,69.1,29.74,SSW,197,0.0,3.0,96,0.03,,,0.06,meteohub,2013-05-03 09:11:00,
2013-05-03 05:16:00,70.3,69.1,29.74,SSW,198,0.0,3.0,96,0.04,,,0.07,meteohub,2013-05-03 09:16:00,
2013-05-03 05:22:00,70.2,68.9,29.74,SSW,198,0.0,3.0,96,0.04,,,0.07,meteohub,2013-05-03 09:22:00,
2013-05-03 05:27:00,70.2,68.9,29.74,SW,214,0.0,3.0,96,0.04,,,0.07,meteohub,2013-05-03 09:27:00,
2013-05-03 05:32:00,70.0,69.1,29.74,SW,222,1.0,5.0,97,0.04,,,0.07,meteohub,2013-05-03 09:32:00,
2013-05-03 05:38:00,69.6,68.7,29.74,South,181,2.0,6.0,97,0.04,,,0.07,meteohub,2013-05-03 09:38:00,
2013-05-03 05:44:00,69.6,68.7,29.74,SW,234,0.0,6.0,97,0.04,,,0.07,meteohub,2013-05-03 09:44:00,
2013-05-03 05:50:00,69.4,68.5,29.75,West,271,2.0,6.0,97,0.04,,,0.07,meteohub,2013-05-03 09:50:00,
2013-05-03 05:55:00,69.3,68.4,29.75,WSW,257,0.0,6.0,97,0.02,,,0.07,meteohub,2013-05-03 09:55:00,
2013-05-03 06:01:00,69.1,68.2,29.75,West,267,1.0,6.0,97,0.01,,,0.07,meteohub,2013-05-03 10:01:00,
2013-05-03 06:06:00,68.9,68.0,29.75,West,267,0.0,4.0,97,0.01,,,0.07,meteohub,2013-05-03 10:06:00,
2013-05-03 06:13:00,68.7,67.8,29.75,SW,215,0.0,5.0,97,0.01,,,0.07,meteohub,2013-05-03 10:13:00,
2013-05-03 06:18:00,68.5,67.6,29.76,WSW,246,1.0,5.0,97,0.00,,,0.07,meteohub,2013-05-03 10:18:00,
2013-05-03 06:20:00,68.5,67.6,29.76,WSW,252,2.0,5.0,97,0.00,,,0.07,meteohub,2013-05-03 10:20:00,
2013-05-03 06:32:00,68.5,67.6,29.76,West,275,1.0,5.0,97,0.00,,,0.07,meteohub,2013-05-03 10:32:00,
2013-05-03 06:37:00,68.5,67.6,29.76,SSW,201,0.0,5.0,97,0.00,,,0.07,meteohub,2013-05-03 10:37:00,
2013-05-03 06:42:00,68.4,67.5,29.76,West,275,0.0,5.0,97,0.00,,,0.07,meteohub,2013-05-03 10:42:00,
2013-05-03 06:47:00,68.4,67.5,29.76,WSW,255,0.0,5.0,97,0.00,,,0.07,meteohub,2013-05-03 10:47:00,
2013-05-03 06:52:00,68.4,67.8,29.76,West,279,1.0,5.0,98,0.00,,,0.07,meteohub,2013-05-03 10:52:00,
2013-05-03 06:57:00,68.4,67.8,29.76,West,265,2.0,6.0,98,0.00,,,0.07,meteohub,2013-05-03 10:57:00,
2013-05-03 07:02:00,68.4,67.8,29.76,West,273,5.0,8.0,98,0.00,,,0.07,meteohub,2013-05-03 11:02:00,
2013-05-03 07:07:00,68.4,67.8,29.76,SW,229,2.0,8.0,98,0.00,,,0.07,meteohub,2013-05-03 11:07:00,
2013-05-03 07:12:00,68.2,67.6,29.76,SW,236,0.0,8.0,98,0.00,,,0.07,meteohub,2013-05-03 11:12:00,
2013-05-03 07:17:00,68.4,67.8,29.77,SSW,210,4.0,8.0,98,0.00,,,0.07,meteohub,2013-05-03 11:17:00,
2013-05-03 07:22:00,68.2,67.6,29.76,WSW,255,2.0,6.0,98,0.00,,,0.07,meteohub,2013-05-03 11:22:00,
2013-05-03 07:27:00,68.2,67.6,29.77,WSW,244,0.0,6.0,98,0.00,,,0.07,meteohub,2013-05-03 11:27:00,
2013-05-03 07:32:00,68.4,67.8,29.77,SW,236,0.0,6.0,98,0.00,,,0.07,meteohub,2013-05-03 11:32:00,
2013-05-03 07:37:00,68.4,67.8,29.77,WSW,254,0.0,5.0,98,0.00,,,0.07,meteohub,2013-05-03 11:37:00,
2013-05-03 07:42:00,68.2,67.6,29.77,WSW,253,2.0,5.0,98,0.00,,,0.07,meteohub,2013-05-03 11:42:00,
2013-05-03 07:47:00,68.2,67.6,29.76,SW,228,3.0,6.0,98,0.00,,,0.07,meteohub,2013-05-03 11:47:00,
2013-05-03 07:52:00,68.2,67.6,29.76,SSW,198,4.0,6.0,98,0.00,,,0.07,meteohub,2013-05-03 11:52:00,
2013-05-03 07:57:00,68.2,67.6,29.76,WSW,248,0.0,6.0,98,0.00,,,0.07,meteohub,2013-05-03 11:57:00,
2013-05-03 08:02:00,68.2,67.6,29.76,WNW,298,5.0,8.0,98,0.00,,,0.07,meteohub,2013-05-03 12:02:00,
2013-05-03 08:07:00,68.4,67.8,29.76,West,279,3.0,8.0,98,0.00,,,0.07,meteohub,2013-05-03 12:07:00,
2013-05-03 08:12:00,68.4,67.8,29.76,WNW,290,3.0,8.0,98,0.00,,,0.07,meteohub,2013-05-03 12:12:00,
2013-05-03 08:17:00,68.5,68.0,29.76,SW,233,0.0,8.0,98,0.00,,,0.07,meteohub,2013-05-03 12:17:00,
2013-05-03 08:22:00,68.7,68.2,29.76,South,186,4.0,8.0,98,0.00,,,0.07,meteohub,2013-05-03 12:22:00,
2013-05-03 08:27:00,69.1,68.5,29.76,SSE,163,4.0,8.0,98,0.00,,,0.07,meteohub,2013-05-03 12:27:00,
2013-05-03 08:32:00,69.3,68.7,29.76,WSW,253,1.0,7.0,98,0.00,,,0.07,meteohub,2013-05-03 12:32:00,
2013-05-03 08:37:00,69.6,69.1,29.76,WSW,251,1.0,7.0,98,0.00,,,0.07,meteohub,2013-05-03 12:37:00,
2013-05-03 08:42:00,69.8,68.9,29.76,WNW,302,2.0,7.0,97,0.00,,,0.07,meteohub,2013-05-03 12:42:00,
2013-05-03 08:47:00,70.2,69.3,29.77,West,270,5.0,8.0,97,0.00,,,0.07,meteohub,2013-05-03 12:47:00,
2013-05-03 08:52:00,70.5,69.1,29.77,WSW,257,0.0,8.0,95,0.00,,,0.07,meteohub,2013-05-03 12:52:00,
2013-05-03 08:57:00,71.1,69.6,29.77,SW,232,0.0,8.0,95,0.00,,,0.07,meteohub,2013-05-03 12:57:00,
2013-05-03 09:02:00,71.8,70.0,29.77,South,190,4.0,8.0,94,0.00,,,0.07,meteohub,2013-05-03 13:02:00,
2013-05-03 09:07:00,72.3,69.8,29.77,WSW,238,1.0,7.0,92,0.00,,,0.07,meteohub,2013-05-03 13:07:00,
2013-05-03 09:12:00,72.9,69.8,29.77,SSW,192,3.0,7.0,90,0.00,,,0.07,meteohub,2013-05-03 13:12:00,
2013-05-03 09:17:00,73.2,69.8,29.77,West,273,4.0,8.0,89,0.00,,,0.07,meteohub,2013-05-03 13:17:00,
2013-05-03 09:22:00,73.6,69.8,29.77,WSW,249,3.0,11.0,88,0.00,,,0.07,meteohub,2013-05-03 13:22:00,
2013-05-03 09:27:00,73.9,69.8,29.77,WNW,284,7.0,11.0,87,0.00,,,0.07,meteohub,2013-05-03 13:27:00,
2013-05-03 09:32:00,74.1,70.0,29.77,West,269,1.0,11.0,87,0.00,,,0.07,meteohub,2013-05-03 13:32:00,
2013-05-03 09:37:00,74.7,69.8,29.78,West,265,1.0,9.0,85,0.00,,,0.07,meteohub,2013-05-03 13:37:00,
2013-05-03 09:42:00,74.8,69.6,29.78,West,272,3.0,8.0,84,0.00,,,0.07,meteohub,2013-05-03 13:42:00,
2013-05-03 09:47:00,75.0,69.8,29.78,West,261,6.0,12.0,84,0.00,,,0.07,meteohub,2013-05-03 13:47:00,
2013-05-03 09:52:00,75.7,70.2,29.78,WSW,241,3.0,12.0,83,0.00,,,0.07,meteohub,2013-05-03 13:52:00,
2013-05-03 09:57:00,76.3,70.7,29.78,NNW,336,7.0,12.0,83,0.00,,,0.07,meteohub,2013-05-03 13:57:00,
2013-05-03 10:02:00,76.5,70.5,29.78,West,275,5.0,8.0,82,0.00,,,0.07,meteohub,2013-05-03 14:02:00,
2013-05-03 10:07:00,76.3,69.6,29.78,SSE,161,4.0,10.0,80,0.00,,,0.07,meteohub,2013-05-03 14:07:00,
2013-05-03 10:12:00,75.9,69.3,29.78,SW,236,3.0,10.0,80,0.00,,,0.07,meteohub,2013-05-03 14:12:00,
2013-05-03 10:17:00,76.1,69.1,29.78,West,265,2.0,10.0,79,0.00,,,0.07,meteohub,2013-05-03 14:17:00,
2013-05-03 10:22:00,76.5,69.8,29.78,WSW,249,1.0,10.0,80,0.00,,,0.07,meteohub,2013-05-03 14:22:00,
2013-05-03 10:27:00,77.2,70.2,29.78,SW,222,0.0,9.0,79,0.00,,,0.07,meteohub,2013-05-03 14:27:00,
2013-05-03 10:32:00,77.4,70.0,29.78,WSW,256,0.0,9.0,78,0.00,,,0.07,meteohub,2013-05-03 14:32:00,
2013-05-03 10:37:00,77.5,69.4,29.78,WNW,285,5.0,9.0,76,0.00,,,0.07,meteohub,2013-05-03 14:37:00,
2013-05-03 10:42:00,77.2,69.4,29.78,West,272,1.0,11.0,77,0.00,,,0.07,meteohub,2013-05-03 14:42:00,
2013-05-03 10:47:00,77.5,69.8,29.78,West,262,0.0,11.0,77,0.00,,,0.07,meteohub,2013-05-03 14:47:00,
2013-05-03 10:52:00,77.9,69.3,29.78,WSW,238,1.0,11.0,75,0.00,,,0.07,meteohub,2013-05-03 14:52:00,
2013-05-03 10:57:00,77.9,68.9,29.78,WNW,290,0.0,9.0,74,0.00,,,0.07,meteohub,2013-05-03 14:57:00,
2013-05-03 11:02:00,78.6,70.0,29.78,West,279,0.0,9.0,75,0.00,,,0.07,meteohub,2013-05-03 15:02:00,
2013-05-03 11:07:00,79.7,70.3,29.78,West,279,6.0,8.0,73,0.00,,,0.07,meteohub,2013-05-03 15:07:00,
2013-05-03 11:12:00,79.7,69.1,29.78,West,277,5.0,10.0,70,0.00,,,0.07,meteohub,2013-05-03 15:12:00,
2013-05-03 11:17:00,79.5,68.9,29.78,West,275,5.0,10.0,70,0.00,,,0.07,meteohub,2013-05-03 15:17:00,
2013-05-03 11:22:00,79.5,68.5,29.78,West,270,0.0,10.0,69,0.00,,,0.07,meteohub,2013-05-03 15:22:00,
2013-05-03 11:27:00,79.9,69.3,29.78,NW,305,1.0,8.0,70,0.00,,,0.07,meteohub,2013-05-03 15:27:00,
2013-05-03 11:32:00,79.9,69.6,29.78,South,184,1.0,8.0,71,0.00,,,0.07,meteohub,2013-05-03 15:32:00,
2013-05-03 11:37:00,79.9,69.3,29.78,NW,307,1.0,7.0,70,0.00,,,0.07,meteohub,2013-05-03 15:37:00,
2013-05-03 11:42:00,79.9,69.3,29.78,WNW,295,0.0,7.0,70,0.00,,,0.07,meteohub,2013-05-03 15:42:00,
2013-05-03 11:47:00,80.4,69.3,29.78,NW,311,1.0,8.0,69,0.00,,,0.07,meteohub,2013-05-03 15:47:00,
2013-05-03 11:52:00,80.4,68.9,29.78,WSW,257,2.0,8.0,68,0.00,,,0.07,meteohub,2013-05-03 15:52:00,
2013-05-03 11:57:00,80.1,69.4,29.78,WNW,303,2.0,8.0,70,0.00,,,0.07,meteohub,2013-05-03 15:57:00,
2013-05-03 12:02:00,80.6,70.0,29.78,West,268,4.0,7.0,70,0.00,,,0.07,meteohub,2013-05-03 16:02:00,
2013-05-03 12:07:00,81.7,69.3,29.78,SW,229,1.0,8.0,66,0.00,,,0.07,meteohub,2013-05-03 16:07:00,
2013-05-03 12:12:00,81.7,69.6,29.78,WNW,295,2.0,8.0,67,0.00,,,0.07,meteohub,2013-05-03 16:12:00,
2013-05-03 12:17:00,82.0,70.9,29.78,NNW,327,0.0,8.0,69,0.00,,,0.07,meteohub,2013-05-03 16:17:00,
2013-05-03 12:22:00,82.2,69.8,29.78,NNW,343,1.0,7.0,66,0.00,,,0.07,meteohub,2013-05-03 16:22:00,
2013-05-03 12:27:00,82.2,69.3,29.77,NNW,331,1.0,7.0,65,0.00,,,0.07,meteohub,2013-05-03 16:27:00,
2013-05-03 12:32:00,82.2,69.8,29.78,West,279,7.0,7.0,66,0.00,,,0.07,meteohub,2013-05-03 16:32:00,
2013-05-03 12:37:00,82.9,69.4,29.78,WNW,302,9.0,9.0,64,0.00,,,0.07,meteohub,2013-05-03 16:37:00,
2013-05-03 12:42:00,83.3,69.4,29.77,WNW,285,3.0,9.0,63,0.00,,,0.07,meteohub,2013-05-03 16:42:00,
2013-05-03 12:47:00,83.5,69.6,29.77,NNW,344,0.0,9.0,63,0.00,,,0.07,meteohub,2013-05-03 16:47:00,
2013-05-03 12:52:00,83.7,68.7,29.77,NW,313,2.0,9.0,61,0.00,,,0.07,meteohub,2013-05-03 16:52:00,
2013-05-03 12:57:00,84.6,69.6,29.76,NW,320,2.0,7.0,61,0.00,,,0.07,meteohub,2013-05-03 16:57:00,
2013-05-03 13:02:00,84.7,69.3,29.76,WNW,288,3.0,7.0,60,0.00,,,0.07,meteohub,2013-05-03 17:02:00,
2013-05-03 13:07:00,84.4,69.4,29.76,NNW,339,2.0,7.0,61,0.00,,,0.07,meteohub,2013-05-03 17:07:00,
2013-05-03 13:12:00,84.2,68.4,29.76,West,264,2.0,7.0,59,0.00,,,0.07,meteohub,2013-05-03 17:12:00,
2013-05-03 13:17:00,84.0,68.2,29.76,WNW,296,2.0,9.0,59,0.00,,,0.07,meteohub,2013-05-03 17:17:00,
2013-05-03 13:22:00,84.4,68.5,29.76,West,268,0.0,9.0,59,0.00,,,0.07,meteohub,2013-05-03 17:22:00,
2013-05-03 13:27:00,85.1,68.2,29.76,North,350,2.0,9.0,57,0.00,,,0.07,meteohub,2013-05-03 17:27:00,
2013-05-03 13:32:00,84.9,70.0,29.75,North,5,3.0,6.0,61,0.00,,,0.07,meteohub,2013-05-03 17:32:00,
2013-05-03 13:37:00,84.7,67.8,29.75,WNW,286,1.0,6.0,57,0.00,,,0.07,meteohub,2013-05-03 17:37:00,
2013-05-03 13:42:00,85.6,69.6,29.75,NW,321,2.0,6.0,59,0.00,,,0.07,meteohub,2013-05-03 17:42:00,
2013-05-03 13:47:00,86.2,68.7,29.75,South,191,5.0,6.0,56,0.00,,,0.07,meteohub,2013-05-03 17:47:00,
2013-05-03 13:52:00,86.2,68.7,29.75,SW,230,5.0,10.0,56,0.00,,,0.07,meteohub,2013-05-03 17:52:00,
2013-05-03 13:57:00,86.5,68.4,29.74,NNW,328,0.0,10.0,55,0.00,,,0.07,meteohub,2013-05-03 17:57:00,
2013-05-03 14:02:00,87.1,67.8,29.74,WNW,294,0.0,10.0,53,0.00,,,0.07,meteohub,2013-05-03 18:02:00,
2013-05-03 14:07:00,86.4,67.8,29.74,NW,304,4.0,9.0,54,0.00,,,0.07,meteohub,2013-05-03 18:07:00,
2013-05-03 14:12:00,85.8,68.4,29.74,NW,320,0.0,9.0,56,0.00,,,0.07,meteohub,2013-05-03 18:12:00,
2013-05-03 14:17:00,85.6,68.7,29.74,WNW,284,0.0,9.0,57,0.00,,,0.07,meteohub,2013-05-03 18:17:00,
2013-05-03 14:21:00,86.4,68.7,29.74,NW,321,2.0,8.0,56,0.00,,,0.07,meteohub,2013-05-03 18:21:00,
2013-05-03 14:26:00,86.7,68.0,29.73,NNW,336,0.0,5.0,54,0.00,,,0.07,meteohub,2013-05-03 18:26:00,
2013-05-03 14:31:00,86.4,67.8,29.73,WNW,294,0.0,5.0,54,0.00,,,0.07,meteohub,2013-05-03 18:31:00,
2013-05-03 14:37:00,86.0,68.9,29.73,ENE,61,3.0,6.0,57,0.00,,,0.07,meteohub,2013-05-03 18:37:00,
2013-05-03 14:42:00,84.9,70.9,29.73,East,90,1.0,6.0,63,0.00,,,0.07,meteohub,2013-05-03 18:42:00,
2013-05-03 14:47:00,83.7,70.7,29.73,East,98,0.0,6.0,65,0.00,,,0.07,meteohub,2013-05-03 18:47:00,
2013-05-03 14:52:00,82.6,70.9,29.72,ESE,121,4.0,5.0,68,0.00,,,0.07,meteohub,2013-05-03 18:52:00,
2013-05-03 14:57:00,81.5,70.7,29.72,SE,140,1.0,5.0,70,0.00,,,0.07,meteohub,2013-05-03 18:57:00,
2013-05-03 15:02:00,80.8,70.5,29.72,SE,124,0.0,6.0,71,0.00,,,0.07,meteohub,2013-05-03 19:02:00,
2013-05-03 15:06:00,81.0,71.1,29.72,East,96,2.0,6.0,72,0.00,,,0.07,meteohub,2013-05-03 19:06:00,
2013-05-03 15:11:00,81.0,71.1,29.72,SSE,155,0.0,6.0,72,0.00,,,0.07,meteohub,2013-05-03 19:11:00,
2013-05-03 15:17:00,80.6,70.7,29.72,ESE,123,0.0,7.0,72,0.00,,,0.07,meteohub,2013-05-03 19:17:00,
2013-05-03 15:22:00,80.4,70.5,29.72,East,91,0.0,7.0,72,0.00,,,0.07,meteohub,2013-05-03 19:22:00,
2013-05-03 15:27:00,80.2,70.0,29.72,NE,45,0.0,7.0,71,0.00,,,0.07,meteohub,2013-05-03 19:27:00,
2013-05-03 15:32:00,79.9,70.5,29.72,East,98,2.0,5.0,73,0.00,,,0.07,meteohub,2013-05-03 19:32:00,
2013-05-03 15:37:00,79.3,70.0,29.72,ENE,76,0.0,5.0,73,0.00,,,0.07,meteohub,2013-05-03 19:37:00,
2013-05-03 15:42:00,79.0,70.0,29.71,SE,146,1.0,5.0,74,0.00,,,0.07,meteohub,2013-05-03 19:42:00,
2013-05-03 15:47:00,79.0,70.3,29.71,ESE,117,3.0,5.0,75,0.00,,,0.07,meteohub,2013-05-03 19:47:00,
2013-05-03 15:52:00,78.6,70.3,29.71,SE,128,0.0,5.0,76,0.00,,,0.07,meteohub,2013-05-03 19:52:00,
2013-05-03 15:57:00,78.4,71.1,29.71,East,93,0.0,5.0,78,0.00,,,0.07,meteohub,2013-05-03 19:57:00,
2013-05-03 16:02:00,77.9,71.6,29.70,East,82,1.0,5.0,81,0.00,,,0.07,meteohub,2013-05-03 20:02:00,
2013-05-03 16:07:00,77.5,70.9,29.70,SE,135,1.0,4.0,80,0.00,,,0.07,meteohub,2013-05-03 20:07:00,
2013-05-03 16:12:00,77.7,70.3,29.70,ESE,117,3.0,7.0,78,0.01,,,0.08,meteohub,2013-05-03 20:12:00,
2013-05-03 16:17:00,78.1,70.3,29.70,SSE,159,1.0,7.0,77,0.01,,,0.08,meteohub,2013-05-03 20:17:00,
2013-05-03 16:21:00,78.3,70.0,29.70,SE,140,0.0,9.0,76,0.01,,,0.08,meteohub,2013-05-03 20:21:00,
2013-05-03 16:27:00,78.3,70.0,29.70,SE,143,3.0,9.0,76,0.01,,,0.08,meteohub,2013-05-03 20:27:00,
2013-05-03 16:32:00,78.3,70.0,29.70,East,91,1.0,9.0,76,0.01,,,0.08,meteohub,2013-05-03 20:32:00,
2013-05-03 16:37:00,78.1,70.3,29.70,SE,124,0.0,7.0,77,0.01,,,0.08,meteohub,2013-05-03 20:37:00,
2013-05-03 16:42:00,77.9,70.2,29.70,SSW,213,4.0,7.0,77,0.01,,,0.08,meteohub,2013-05-03 20:42:00,
2013-05-03 16:47:00,77.4,70.3,29.70,South,180,3.0,8.0,79,0.01,,,0.08,meteohub,2013-05-03 20:47:00,
2013-05-03 16:52:00,77.4,70.7,29.70,SE,136,0.0,8.0,80,0.01,,,0.08,meteohub,2013-05-03 20:52:00,
2013-05-03 16:57:00,78.1,71.4,29.70,SSE,166,2.0,9.0,80,0.01,,,0.08,meteohub,2013-05-03 20:57:00,
2013-05-03 17:02:00,79.0,71.1,29.70,South,179,2.0,9.0,77,0.01,,,0.08,meteohub,2013-05-03 21:02:00,
2013-05-03 17:07:00,79.3,71.1,29.70,South,170,4.0,11.0,76,0.01,,,0.08,meteohub,2013-05-03 21:07:00,
2013-05-03 17:12:00,79.5,70.2,29.69,SSE,166,4.0,12.0,73,0.00,,,0.08,meteohub,2013-05-03 21:12:00,
2013-05-03 17:17:00,79.7,69.4,29.69,ENE,70,3.0,12.0,71,0.00,,,0.08,meteohub,2013-05-03 21:17:00,
2013-05-03 17:22:00,80.1,69.4,29.69,South,178,4.0,12.0,70,0.00,,,0.08,meteohub,2013-05-03 21:22:00,
2013-05-03 17:27:00,80.2,69.1,29.69,SE,135,0.0,10.0,69,0.00,,,0.08,meteohub,2013-05-03 21:27:00,
2013-05-03 17:32:00,80.1,68.9,29.69,SE,138,2.0,7.0,69,0.00,,,0.08,meteohub,2013-05-03 21:32:00,
2013-05-03 17:37:00,80.2,69.6,29.69,SE,136,2.0,6.0,70,0.00,,,0.08,meteohub,2013-05-03 21:37:00,
2013-05-03 17:42:00,80.2,70.9,29.69,ESE,121,7.0,11.0,73,0.00,,,0.08,meteohub,2013-05-03 21:42:00,
2013-05-03 17:47:00,79.5,72.1,29.69,SE,138,3.0,11.0,78,0.00,,,0.08,meteohub,2013-05-03 21:47:00,
2013-05-03 17:52:00,79.0,72.0,29.69,South,170,8.0,11.0,79,0.00,,,0.08,meteohub,2013-05-03 21:52:00,
2013-05-03 17:57:00,78.1,71.1,29.69,SSE,164,2.0,11.0,79,0.00,,,0.08,meteohub,2013-05-03 21:57:00,
2013-05-03 18:02:00,77.5,71.2,29.69,SSW,198,4.0,11.0,81,0.00,,,0.08,meteohub,2013-05-03 22:02:00,
2013-05-03 18:06:00,77.2,71.2,29.69,SSW,196,7.0,11.0,82,0.00,,,0.08,meteohub,2013-05-03 22:06:00,
2013-05-03 18:11:00,76.8,71.2,29.69,South,181,1.0,14.0,83,0.00,,,0.08,meteohub,2013-05-03 22:11:00,
2013-05-03 18:16:00,76.5,71.6,29.70,SW,217,3.0,14.0,85,0.00,,,0.08,meteohub,2013-05-03 22:16:00,
2013-05-03 18:21:00,75.7,70.5,29.70,South,179,5.0,14.0,84,0.00,,,0.08,meteohub,2013-05-03 22:21:00,
2013-05-03 18:27:00,75.0,70.5,29.70,SSW,203,1.0,10.0,86,0.01,,,0.09,meteohub,2013-05-03 22:27:00,
2013-05-03 18:32:00,74.1,69.3,29.70,SW,218,8.0,10.0,85,0.01,,,0.09,meteohub,2013-05-03 22:32:00,
2013-05-03 18:37:00,73.2,68.4,29.70,SW,228,0.0,10.0,85,0.02,,,0.10,meteohub,2013-05-03 22:37:00,
2013-05-03 18:42:00,72.5,67.5,29.70,SSW,211,1.0,8.0,84,0.02,,,0.10,meteohub,2013-05-03 22:42:00,
2013-05-03 18:47:00,72.0,66.9,29.70,SSW,206,0.0,8.0,84,0.02,,,0.10,meteohub,2013-05-03 22:47:00,
2013-05-03 18:52:00,71.8,66.7,29.70,SSW,202,0.0,6.0,84,0.02,,,0.10,meteohub,2013-05-03 22:52:00,
2013-05-03 18:56:00,71.6,66.9,29.70,SSW,202,0.0,5.0,85,0.02,,,0.10,meteohub,2013-05-03 22:56:00,
2013-05-03 19:01:00,71.4,67.1,29.70,SSW,202,0.0,3.0,86,0.02,,,0.10,meteohub,2013-05-03 23:01:00,
2013-05-03 19:06:00,71.4,66.7,29.70,SSW,202,0.0,1.0,85,0.02,,,0.10,meteohub,2013-05-03 23:06:00,
2013-05-03 19:11:00,71.6,67.8,29.69,SSW,202,0.0,1.0,88,0.02,,,0.10,meteohub,2013-05-03 23:11:00,
2013-05-03 19:16:00,71.6,67.8,29.70,SSW,211,0.0,1.0,88,0.02,,,0.10,meteohub,2013-05-03 23:16:00,
2013-05-03 19:22:00,71.4,67.3,29.70,SSW,211,0.0,1.0,87,0.02,,,0.10,meteohub,2013-05-03 23:22:00,
2013-05-03 19:27:00,71.4,67.6,29.70,SSW,211,0.0,1.0,88,0.01,,,0.10,meteohub,2013-05-03 23:27:00,
2013-05-03 19:32:00,71.2,67.5,29.70,SW,220,0.0,1.0,88,0.01,,,0.10,meteohub,2013-05-03 23:32:00,
2013-05-03 19:37:00,71.1,67.3,29.70,SW,221,0.0,0.0,88,0.00,,,0.10,meteohub,2013-05-03 23:37:00,
2013-05-03 19:42:00,71.1,67.6,29.70,SW,221,0.0,0.0,89,0.00,,,0.10,meteohub,2013-05-03 23:42:00,
2013-05-03 19:47:00,71.1,67.6,29.71,SW,221,0.0,0.0,89,0.00,,,0.10,meteohub,2013-05-03 23:47:00,
2013-05-03 19:52:00,71.1,68.0,29.71,SW,221,0.0,0.0,90,0.00,,,0.10,meteohub,2013-05-03 23:52:00,
2013-05-03 19:57:00,71.1,67.6,29.71,SW,221,0.0,0.0,89,0.00,,,0.10,meteohub,2013-05-03 23:57:00,
2013-05-03 20:02:00,71.2,68.2,29.72,SW,221,0.0,0.0,90,0.00,,,0.10,meteohub,2013-05-04 00:02:00,
2013-05-03 20:07:00,71.2,68.5,29.73,NW,318,0.0,0.0,91,0.00,,,0.00,meteohub,2013-05-04 00:07:00,
2013-05-03 20:12:00,71.4,68.4,29.73,NW,322,0.0,5.0,90,0.00,,,0.00,meteohub,2013-05-04 00:12:00,
2013-05-03 20:17:00,71.4,68.4,29.73,NW,323,0.0,5.0,90,0.00,,,0.00,meteohub,2013-05-04 00:17:00,
2013-05-03 20:22:00,71.2,68.2,29.73,NW,323,0.0,5.0,90,0.00,,,0.00,meteohub,2013-05-04 00:22:00,
2013-05-03 20:27:00,71.2,67.8,29.74,NW,323,0.0,2.0,89,0.00,,,0.00,meteohub,2013-05-04 00:27:00,
2013-05-03 20:32:00,71.2,68.2,29.73,NW,323,0.0,2.0,90,0.00,,,0.00,meteohub,2013-05-04 00:32:00,
2013-05-03 20:37:00,71.2,68.2,29.74,NW,323,0.0,0.0,90,0.00,,,0.00,meteohub,2013-05-04 00:37:00,
2013-05-03 20:42:00,71.1,68.0,29.74,West,269,2.0,3.0,90,0.00,,,0.00,meteohub,2013-05-04 00:42:00,
2013-05-03 20:47:00,71.1,68.4,29.74,WNW,282,2.0,4.0,91,0.01,,,0.01,meteohub,2013-05-04 00:47:00,
2013-05-03 20:52:00,71.1,68.4,29.74,WNW,286,0.0,4.0,91,0.01,,,0.01,meteohub,2013-05-04 00:52:00,
2013-05-03 20:57:00,71.1,68.4,29.74,WNW,287,0.0,5.0,91,0.01,,,0.01,meteohub,2013-05-04 00:57:00,
2013-05-03 21:02:00,71.1,68.4,29.74,WNW,282,0.0,5.0,91,0.01,,,0.01,meteohub,2013-05-04 01:02:00,
2013-05-03 21:07:00,71.1,68.5,29.74,WNW,297,1.0,5.0,92,0.01,,,0.01,meteohub,2013-05-04 01:07:00,
2013-05-03 21:12:00,71.1,68.5,29.75,West,273,2.0,7.0,92,0.02,,,0.02,meteohub,2013-05-04 01:12:00,
2013-05-03 21:17:00,70.9,68.7,29.75,West,280,0.0,7.0,93,0.03,,,0.03,meteohub,2013-05-04 01:17:00,
2013-05-03 21:22:00,70.9,69.1,29.74,West,266,0.0,7.0,94,0.03,,,0.03,meteohub,2013-05-04 01:22:00,
2013-05-03 21:27:00,70.7,68.9,29.74,SSW,209,2.0,5.0,94,0.03,,,0.03,meteohub,2013-05-04 01:27:00,
2013-05-03 21:32:00,70.5,68.7,29.74,SW,236,0.0,5.0,94,0.03,,,0.03,meteohub,2013-05-04 01:32:00,
2013-05-03 21:37:00,70.5,68.7,29.74,South,189,0.0,3.0,94,0.03,,,0.03,meteohub,2013-05-04 01:37:00,
2013-05-03 21:42:00,70.5,69.1,29.75,WSW,238,0.0,2.0,95,0.03,,,0.03,meteohub,2013-05-04 01:42:00,
2013-05-03 21:47:00,70.5,69.1,29.75,WSW,238,0.0,2.0,95,0.02,,,0.03,meteohub,2013-05-04 01:47:00,
2013-05-03 21:52:00,70.5,69.1,29.75,SSW,211,0.0,2.0,95,0.02,,,0.03,meteohub,2013-05-04 01:52:00,
2013-05-03 21:57:00,70.5,69.1,29.75,SSW,202,0.0,3.0,95,0.02,,,0.03,meteohub,2013-05-04 01:57:00,
2013-05-03 22:02:00,70.3,68.9,29.74,South,184,0.0,3.0,95,0.02,,,0.03,meteohub,2013-05-04 02:02:00,
2013-05-03 22:07:00,70.3,68.9,29.75,SSW,207,0.0,3.0,95,0.02,,,0.03,meteohub,2013-05-04 02:07:00,
2013-05-03 22:12:00,70.3,68.9,29.75,SW,236,0.0,2.0,95,0.01,,,0.03,meteohub,2013-05-04 02:12:00,
2013-05-03 22:17:00,70.3,68.9,29.75,SW,236,0.0,2.0,95,0.00,,,0.03,meteohub,2013-05-04 02:17:00,
2013-05-03 22:22:00,70.2,68.7,29.75,WSW,237,0.0,2.0,95,0.00,,,0.03,meteohub,2013-05-04 02:22:00,
2013-05-03 22:27:00,70.2,68.7,29.75,SW,219,0.0,2.0,95,0.00,,,0.03,meteohub,2013-05-04 02:27:00,
2013-05-03 22:32:00,70.2,68.7,29.75,SW,219,0.0,2.0,95,0.00,,,0.03,meteohub,2013-05-04 02:32:00,
2013-05-03 22:37:00,70.0,68.5,29.74,SW,220,0.0,2.0,95,0.00,,,0.03,meteohub,2013-05-04 02:37:00,
2013-05-03 22:42:00,70.0,68.5,29.74,SW,223,0.0,2.0,95,0.00,,,0.03,meteohub,2013-05-04 02:42:00,
2013-05-03 22:47:00,69.8,68.4,29.74,SW,223,0.0,1.0,95,0.00,,,0.03,meteohub,2013-05-04 02:47:00,
2013-05-03 22:52:00,69.6,68.2,29.74,SW,223,0.0,0.0,95,0.00,,,0.03,meteohub,2013-05-04 02:52:00,
2013-05-03 22:57:00,69.6,68.2,29.74,SW,223,0.0,0.0,95,0.00,,,0.03,meteohub,2013-05-04 02:57:00,
2013-05-03 23:02:00,69.4,68.0,29.74,SW,223,0.0,0.0,95,0.00,,,0.03,meteohub,2013-05-04 03:02:00,
2013-05-03 23:07:00,69.4,68.0,29.74,SW,223,0.0,0.0,95,0.00,,,0.03,meteohub,2013-05-04 03:07:00,
2013-05-03 23:12:00,69.3,67.8,29.74,SW,223,0.0,0.0,95,0.00,,,0.03,meteohub,2013-05-04 03:12:00,
2013-05-03 23:17:00,69.3,67.8,29.73,SW,223,0.0,0.0,95,0.00,,,0.03,meteohub,2013-05-04 03:17:00,
2013-05-03 23:22:00,69.1,67.6,29.74,SW,223,0.0,0.0,95,0.00,,,0.03,meteohub,2013-05-04 03:22:00,
2013-05-03 23:27:00,69.1,67.8,29.73,SW,223,0.0,0.0,96,0.00,,,0.03,meteohub,2013-05-04 03:27:00,
2013-05-03 23:32:00,69.1,67.8,29.73,SW,223,0.0,1.0,96,0.00,,,0.03,meteohub,2013-05-04 03:32:00,
2013-05-03 23:37:00,69.1,67.8,29.73,SW,223,0.0,1.0,96,0.00,,,0.03,meteohub,2013-05-04 03:37:00,
2013-05-03 23:42:00,68.9,67.6,29.73,SW,223,0.0,1.0,96,0.00,,,0.03,meteohub,2013-05-04 03:42:00,
2013-05-03 23:47:00,68.7,67.5,29.73,SW,223,0.0,1.0,96,0.00,,,0.03,meteohub,2013-05-04 03:47:00,
2013-05-03 23:52:00,68.7,67.3,29.73,SW,223,0.0,0.0,95,0.00,,,0.03,meteohub,2013-05-04 03:52:00,
2013-05-03 23:57:00,68.5,67.3,29.73,SW,223,0.0,0.0,96,0.00,,,0.03,meteohub,2013-05-04 03:57:00,